sat.trackr.live / text

‹ back to catalog

QIANFAN-103

NORAD 66045 · 2025-233N

PAYLOAD ACTIVE UNKNOWN

§ Identity

Operator
Country
PRC
Launch date
2025-10-17
Launch site
TAISC
Launch vehicle
Mass (kg)
RCS (m²)

External: N2YO · Heavens-Above · Gunter

§ Orbital elements

Epoch: 2026-09-20T15:34:25.247712Z

Period
106.59 min
Inclination
89.0061°
Eccentricity
0.0001798
Mean motion
13.51028577 rev/d
Perigee alt
1,067.1 km
Apogee alt
1,069.8 km
Semi-major
7,446.6 km
B*
3.9351e-5
RAAN
33.5524°
Arg perigee
94.5821°
Mean anomaly
265.5536°
Rev number
4,607

§ Raw data

QIANFAN-1031 66045U 25233N   26263.64890333  .00000037  00000+0  39351-4 0  99952 66045  89.0061  33.5524 0001798  94.5821 265.5536 13.51028577 46071

JSON: /api/v1/satellites/66045 · /tle

For live sub-satellite position, see the globe view (requires WebGL).

§ Visibility from observer

Set your observer location to see the next 7 days of passes ≥ 10°. The values pass through the URL so the page stays shareable.

No JS? Fill the form by hand. The geolocation button needs JavaScript.